Location: Lake Lucerne
(45.5315°N, 88.8489°W)
Time: 21:49:13
(UTC-05:00)

Tiangong 2 - Visible Passes

Search period start: 22 June 2018 00:00
Search period end: 02 July 2018 00:00
Orbit: 291 x 296 km, 42.8° (Epoch: 21 June)

Date Brightness Start Highest point End Pass type
(mag) Time Alt. Az. Time Alt. Az. Time Alt. Az.
28 Jun 3.0 03:56:12 10° S 03:57:07 11° SSE 03:58:04 10° SE visible
29 Jun 2.4 04:01:18 14° SSW 04:02:30 18° SSE 04:04:22 10° ESE visible
30 Jun 1.8 04:06:18 15° SW 04:07:51 26° SSE 04:10:05 10° ESE visible
01 Jul 1.3 04:11:14 14° SW 04:13:10 35° S 04:15:33 10° E visible
